Theta_e
316 317 318 317 319 319 320 321 322 322 323 324 324 324 324 324 324 324 324 325 325 325 326 326 326 326 326 326 326 326 322 311 309 306 306 309 312 319 321 323 324 325 323 317 317 311 305 306 306 311 306 306 312 307 310 309 307 307 298 295 292 294 294 296 295 296 298 295 297 298 298 298 295 299 301 303 300 300 301 302 302 303 302 303 303 303 304 304
317 318 318 319 319 321 321 322 323 323 324 324 324 324 324 324 325 325 325 325 325 326 326 326 326 325 326 325 326 325 316 311 306 309 306 315 321 321 322 323 323 322 321 316 309 305 303 303 305 314 303 302 311 306 310 306 308 302 298 297 293 296 296 297 298 297 296 297 299 300 299 297 297 299 300 295 296 297 296 298 301 300 301 302 303 302 302 302
317 318 319 320 321 321 322 322 323 323 324 324 324 324 325 325 325 326 326 325 326 326 326 326 326 325 325 324 323 322 317 306 305 303 308 323 323 321 322 322 321 321 314 309 311 306 304 304 305 303 302 300 303 304 305 306 302 303 298 291 296 297 295 297 299 300 300 300 298 298 298 297 299 300 301 295 294 296 294 294 296 297 299 301 301 302 301 301
318 319 320 320 321 321 322 322 323 323 324 324 324 325 325 325 325 325 326 326 326 326 326 326 325 325 323 323 320 321 315 307 299 303 309 321 321 321 321 321 322 319 319 316 313 307 309 306 305 304 304 301 305 303 302 305 303 302 297 294 295 296 294 295 298 297 298 300 300 298 298 296 299 301 299 298 293 294 296 298 297 297 298 301 302 302 302 300
319 319 319 320 321 321 321 322 322 323 324 324 325 325 325 325 325 325 326 326 326 326 326 325 325 323 324 322 320 317 311 301 300 307 310 318 323 325 320 321 322 317 315 316 311 309 307 304 304 305 308 298 307 303 300 302 301 301 297 298 296 297 295 297 297 297 296 298 299 298 296 296 302 300 298 297 292 292 296 300 301 301 302 302 302 302 302 301
317 318 319 319 320 321 321 322 322 323 323 324 325 325 325 324 324 325 325 326 326 327 327 326 323 324 318 319 318 316 309 290 307 306 319 319 319 321 320 318 319 319 318 311 307 305 303 303 302 301 301 300 299 296 298 300 303 296 297 296 296 297 296 297 298 296 296 298 299 299 298 301 297 298 298 297 295 298 304 306 307 306 304 304 304 303 302 301
317 318 318 319 319 320 320 321 322 323 324 324 324 324 324 324 325 326 326 326 326 326 325 325 324 320 321 313 321 314 302 300 306 309 317 320 318 319 319 317 318 320 318 309 306 303 302 301 301 303 301 301 299 299 301 300 304 301 296 295 296 297 296 297 296 297 296 297 298 298 302 296 297 293 299 296 298 300 302 303 305 307 307 308 306 304 302 303
317 318 318 318 319 319 320 321 322 323 323 323 323 324 325 325 325 326 327 327 327 327 326 325 325 324 317 322 315 303 301 299 305 314 314 318 312 315 317 317 315 316 310 305 303 302 302 299 298 310 299 301 303 301 305 301 304 300 297 298 296 296 296 297 296 297 297 298 298 297 295 295 296 296 297 296 298 300 301 302 302 302 305 303 302 303 304 304
317 318 318 318 318 319 319 321 322 322 323 323 323 325 326 325 325 325 325 326 327 327 327 326 321 323 320 314 307 302 297 305 309 310 310 309 310 314 318 309 320 309 307 306 306 304 302 306 304 305 299 302 301 304 303 300 297 300 298 299 296 297 297 296 297 298 297 297 298 295 294 296 297 298 295 296 298 300 301 301 301 301 300 301 302 301 302 302
317 318 318 318 318 319 320 321 322 322 323 323 324 325 326 325 325 324 325 326 326 326 327 325 325 321 316 313 312 298 302 309 310 311 310 308 310 314 319 311 310 307 305 305 305 304 302 301 301 303 306 301 305 301 301 303 298 302 300 300 296 296 296 297 296 297 298 296 297 293 293 294 297 295 291 298 299 300 300 300 300 300 299 300 301 302 302 301
317 318 318 318 318 319 320 321 321 322 322 323 324 325 327 326 324 324 324 325 324 323 323 325 321 316 312 313 303 296 309 308 311 310 310 309 312 309 307 308 308 307 306 306 305 306 306 304 305 305 310 303 302 300 301 299 303 301 300 298 297 295 296 297 296 296 297 294 296 295 293 294 296 296 292 296 300 300 299 299 299 298 298 299 299 300 302 301
317 318 317 318 318 319 320 321 321 321 322 323 324 326 327 325 324 325 326 325 325 323 321 318 318 310 310 304 300 299 308 309 312 310 310 310 309 314 316 311 308 307 307 304 304 305 306 308 312 312 302 305 299 300 300 302 301 300 299 295 297 297 293 295 294 295 296 294 296 296 292 290 292 290 295 297 299 299 298 298 298 298 298 299 299 299 300 300
317 317 317 318 318 319 320 321 321 322 323 324 325 326 325 324 322 323 324 324 323 321 320 320 318 314 315 302 302 308 312 311 314 310 310 311 311 311 310 310 309 309 308 305 303 308 312 308 312 306 309 308 303 294 302 302 301 302 297 295 295 294 291 295 296 296 294 295 295 298 282 288 292 294 296 299 298 298 297 297 297 298 298 298 299 299 299 300
316 316 317 318 319 320 320 320 321 322 323 325 326 324 323 322 322 321 324 320 321 323 321 321 314 314 311 301 306 314 318 312 311 309 308 310 309 308 309 309 309 308 309 307 307 310 315 308 309 308 310 304 301 306 301 298 303 294 300 298 286 286 286 296 295 295 293 295 295 298 281 287 292 296 299 299 299 298 296 296 297 298 298 298 298 299 299 300
315 316 316 318 319 320 320 320 322 323 323 324 321 322 321 320 320 322 320 320 320 322 320 321 324 317 307 303 309 316 316 310 307 307 309 307 306 306 307 309 308 308 308 307 307 309 311 316 314 307 300 306 303 301 296 296 295 295 289 285 288 284 289 294 297 295 291 294 296 295 284 287 292 296 299 300 299 297 296 296 297 297 298 298 299 299 299 299
315 316 317 318 318 319 319 321 321 321 321 321 320 320 319 319 321 321 318 318 320 317 320 323 325 315 305 299 304 313 310 305 304 309 311 309 307 304 307 307 307 309 308 306 309 308 308 307 305 302 302 304 301 298 295 292 292 294 289 283 285 286 287 292 294 296 295 294 295 294 285 289 291 295 298 299 298 297 296 296 297 297 298 298 298 298 298 299
315 315 317 317 318 319 320 320 320 321 322 320 320 320 321 319 318 318 318 317 318 320 314 316 311 315 299 307 310 304 302 306 311 308 308 311 308 307 306 305 305 306 307 305 306 310 309 306 305 306 307 299 298 295 287 286 286 287 290 285 288 284 285 283 295 294 297 294 290 293 288 289 292 295 297 298 298 297 296 296 297 298 298 298 298 298 298 298
315 315 317 317 318 319 320 321 321 319 319 318 319 321 317 318 318 316 316 322 329 322 321 319 312 308 300 307 298 300 306 305 306 306 306 309 309 308 305 303 304 304 304 303 305 301 306 300 301 297 299 297 295 291 285 283 283 284 285 284 284 285 285 285 287 293 295 294 290 290 290 291 293 295 296 298 299 298 297 297 297 297 298 298 298 298 298 299
315 316 316 317 317 319 320 321 320 320 319 319 320 320 320 320 319 314 312 313 317 310 306 302 303 296 293 299 306 304 304 306 308 306 305 307 308 307 307 307 304 302 301 300 302 300 304 302 303 297 287 288 289 289 285 286 291 289 289 284 285 282 283 285 293 296 295 291 289 290 288 291 293 294 296 297 298 297 297 298 297 297 298 298 297 297 298 298
315 315 316 316 318 319 320 320 320 320 318 321 325 325 320 315 313 305 309 309 304 304 306 308 309 309 302 301 301 305 308 309 303 305 306 307 306 305 304 304 309 307 302 296 304 302 306 293 287 285 286 291 294 293 294 293 293 291 290 286 286 286 288 293 295 295 296 290 288 290 290 291 292 293 295 296 296 296 296 296 297 297 297 297 297 297 297 297
315 315 315 316 317 319 319 319 319 318 318 323 326 315 306 308 305 297 304 304 309 309 308 308 308 301 299 301 303 302 300 302 305 303 304 307 307 304 303 304 302 299 298 301 301 306 303 292 286 292 293 293 293 294 293 293 294 292 287 285 285 287 285 293 294 295 295 288 286 289 289 289 291 293 295 296 296 295 295 296 296 296 297 296 296 297 297 298
314 315 314 316 317 318 319 318 319 318 317 317 322 316 310 312 316 316 314 298 309 309 309 306 307 302 303 303 306 304 302 300 301 301 304 305 305 300 306 304 302 297 301 303 301 300 291 287 292 295 294 295 295 295 295 292 289 290 286 285 284 286 289 292 293 295 295 290 287 290 288 289 291 293 295 295 295 295 296 296 296 296 295 296 297 296 297 299
314 314 315 316 318 319 319 319 319 317 324 322 314 308 310 311 312 317 313 308 302 310 309 306 302 300 301 304 304 306 299 296 298 300 300 303 304 302 303 299 299 302 300 299 294 290 292 292 294 296 294 292 295 294 293 292 291 286 285 284 284 287 284 283 289 292 294 288 286 288 287 289 292 294 294 295 296 295 299 302 301 301 297 296 297 298 298 297
314 314 315 316 317 318 318 319 317 323 322 319 314 311 311 312 312 315 315 304 301 305 309 307 305 302 301 299 304 302 299 302 300 295 303 301 299 304 303 299 298 297 293 297 297 295 292 294 294 294 292 294 293 293 293 288 285 288 290 286 285 285 285 285 286 290 290 290 290 288 286 286 290 290 291 295 293 295 298 296 297 296 299 299 299 298 299 299
314 315 316 316 317 318 318 317 320 318 321 313 313 311 312 311 313 316 312 304 305 304 308 309 312 300 302 307 312 303 302 305 301 303 303 300 299 304 301 304 302 293 296 296 296 297 295 294 296 294 295 295 293 290 291 289 284 284 288 288 288 287 286 286 288 287 284 281 286 287 279 279 285 289 290 293 295 294 294 295 295 297 297 297 297 297 299 301
314 315 316 317 317 317 318 318 320 320 326 315 312 310 310 312 312 315 312 297 287 298 311 299 303 299 303 305 304 309 306 300 303 301 307 301 304 303 302 300 298 292 296 294 292 290 292 294 293 292 292 291 291 289 291 289 283 282 283 287 288 286 285 286 285 284 279 277 285 290 279 277 285 287 290 290 290 292 295 293 295 296 296 296 298 295 295 295
314 314 315 316 316 315 314 313 325 324 318 317 309 310 309 312 312 316 307 292 286 296 299 309 307 306 312 304 303 309 291 295 302 308 303 304 304 310 302 293 300 300 299 295 289 287 295 293 290 293 292 290 288 288 290 287 283 282 285 286 285 285 284 284 284 284 282 287 288 289 285 278 279 286 288 290 290 290 290 292 294 294 296 296 294 295 295 296
315 315 315 315 313 313 322 322 319 317 314 310 307 309 310 312 317 318 299 282 278 302 297 301 305 310 309 305 306 298 297 300 299 301 307 308 304 306 305 293 293 291 297 292 283 288 293 290 290 290 291 288 288 290 290 291 283 285 286 288 285 286 286 286 282 282 283 281 280 283 288 280 278 285 289 288 287 288 289 290 291 293 294 294 294 295 295 296
315 315 315 315 314 312 324 325 322 317 306 307 306 308 314 314 314 305 292 280 292 298 311 300 314 304 300 306 305 302 303 304 295 300 307 307 308 304 296 297 296 293 297 295 286 287 292 289 290 292 287 286 289 287 287 289 285 290 289 289 288 288 287 286 282 282 281 280 277 282 285 277 279 283 286 285 286 286 287 289 291 292 293 295 294 294 296 296
315 315 315 314 316 323 326 316 307 309 308 309 309 310 312 312 308 294 285 276 297 288 301 302 300 292 298 297 300 298 298 299 301 301 307 302 303 307 302 300 298 292 288 297 292 291 289 295 294 291 288 292 285 286 289 288 290 291 289 287 287 287 284 283 282 281 279 276 278 283 286 283 275 281 284 282 285 284 285 290 292 293 292 294 294 293 294 295
314 314 312 313 323 318 315 317 310 308 308 309 311 312 313 308 292 288 276 285 300 297 301 297 292 300 294 291 290 295 297 296 296 297 294 304 296 296 296 291 299 291 288 287 286 290 291 291 289 289 294 294 289 288 292 290 288 288 284 284 284 282 283 281 280 281 275 275 279 280 283 284 275 278 284 286 287 285 286 285 288 292 293 294 292 294 292 291
314 314 315 314 312 317 318 318 310 308 309 309 311 314 303 290 291 283 283 304 290 288 288 286 293 291 292 292 291 288 287 293 293 292 287 287 286 288 287 284 284 282 280 282 282 288 286 286 288 293 290 290 289 286 289 287 289 288 286 284 279 276 278 273 277 273 275 275 278 281 283 279 277 282 287 287 286 287 287 290 291 292 293 293 294 294 295 291
311 311 312 312 313 310 310 309 307 308 309 309 315 308 293 288 278 286 285 288 285 289 287 291 289 290 288 291 288 288 293 286 292 293 291 292 287 287 289 287 288 285 279 283 282 282 283 285 288 289 289 292 289 283 283 281 286 286 282 280 277 273 272 269 272 275 275 280 281 281 281 278 281 284 286 288 290 291 290 290 292 292 293 293 293 294 291 292
312 312 309 310 309 308 307 309 308 308 309 315 312 300 290 284 280 288 284 287 286 293 292 289 289 290 291 287 286 288 284 290 289 288 292 289 287 284 287 288 288 285 283 283 279 279 278 279 285 285 283 289 288 286 285 282 283 282 287 283 279 278 273 268 271 269 272 276 280 284 276 274 277 281 288 290 291 290 288 288 289 289 289 291 290 288 289 292
314 314 314 316 317 313 311 309 311 307 310 313 301 292 285 282 285 283 285 285 288 290 289 292 289 289 290 288 290 289 286 284 291 288 287 285 283 285 284 283 287 286 284 281 281 280 283 280 285 288 288 287 289 288 288 285 282 284 284 286 281 279 281 273 275 275 273 275 277 277 277 281 281 289 291 288 288 289 289 288 286 289 288 286 288 292 292 292
315 318 318 313 312 313 313 311 307 310 316 303 294 285 282 282 283 283 285 291 289 284 285 289 289 287 285 287 288 285 292 284 286 287 285 286 287 284 287 285 284 286 281 280 281 278 280 279 286 289 287 284 285 287 287 288 276 282 283 281 281 282 280 276 279 282 279 277 275 279 279 282 286 288 288 288 289 289 289 289 285 289 290 288 289 291 291 291
315 323 308 314 311 313 315 313 311 312 318 297 289 283 284 284 287 286 290 287 287 287 286 283 284 284 283 283 285 283 285 288 284 285 282 288 283 286 287 286 289 285 284 281 282 282 277 279 286 287 287 286 287 286 288 289 287 282 280 282 286 287 285 277 273 274 273 271 274 277 275 277 276 276 286 286 286 288 288 289 289 288 287 287 290 290 290 290
319 314 312 310 312 315 316 314 314 319 303 292 285 288 289 285 289 288 289 287 288 287 286 285 285 289 282 283 283 281 285 283 285 285 284 285 283 287 287 285 289 286 284 285 281 282 283 277 283 285 286 289 287 287 286 289 288 284 282 286 280 274 273 277 276 269 269 268 271 276 277 278 278 279 282 283 285 287 288 289 289 288 289 289 289 289 289 289
319 316 301 311 316 316 317 315 318 311 297 290 287 287 289 288 289 288 288 287 288 286 283 285 284 286 285 283 281 284 283 282 284 284 283 284 281 288 283 285 285 286 285 287 283 283 283 277 280 285 284 287 284 284 279 282 287 287 287 284 286 280 277 274 277 274 275 270 269 271 275 274 281 281 282 284 287 287 288 288 288 288 289 289 289 289 289 290
319 305 296 317 316 315 316 319 304 296 292 287 285 285 291 287 290 289 288 288 287 287 284 284 289 283 285 285 284 282 284 285 283 284 284 286 284 287 284 288 282 284 287 287 283 286 280 284 274 282 287 285 280 283 281 280 280 281 282 281 283 281 284 280 279 276 274 270 271 271 270 276 282 286 285 286 287 288 288 288 289 289 288 289 289 289 290 291
302 305 302 318 312 316 320 305 294 291 288 288 290 289 289 289 291 291 293 289 290 294 287 288 286 284 286 285 283 288 284 283 285 283 285 284 282 281 283 281 285 281 284 284 281 282 280 281 277 280 281 281 282 283 284 284 283 280 280 278 279 277 276 272 272 281 277 274 271 270 270 277 284 289 288 288 289 289 289 289 289 290 288 289 290 290 291 291
304 292 295 311 314 315 308 292 291 290 289 286 286 290 291 292 291 290 289 289 289 288 290 288 289 288 286 287 287 286 285 283 285 284 286 282 287 284 286 286 286 284 280 281 280 282 280 280 279 277 279 282 285 282 283 285 285 283 282 280 282 281 280 276 271 273 276 277 276 276 273 276 286 287 288 288 288 289 290 289 290 290 289 288 290 290 291 290
296 295 310 312 315 316 299 290 290 289 287 288 291 291 290 291 290 288 290 291 290 293 291 289 287 288 289 287 287 286 286 283 285 282 285 285 284 282 287 287 287 286 284 283 280 282 286 278 277 280 282 285 281 283 282 283 284 282 282 281 281 279 280 277 277 277 275 276 273 273 271 277 286 287 288 289 289 289 290 289 289 290 290 289 289 289 290 288
296 295 302 308 315 313 299 287 286 285 286 290 290 288 292 290 289 289 290 289 288 285 288 288 290 289 287 288 285 285 287 280 286 284 283 284 283 285 286 286 285 283 281 280 279 284 277 281 279 276 276 278 279 280 280 280 282 282 281 282 282 281 277 278 278 276 273 275 276 272 269 275 285 288 290 290 290 289 289 290 290 290 290 288 289 289 290 287
295 298 296 302 304 301 291 293 289 288 286 287 287 287 289 288 289 289 289 289 290 288 287 287 287 288 288 288 287 287 287 284 281 285 281 280 282 283 285 285 282 283 285 284 285 284 280 280 279 273 270 269 270 271 273 277 280 282 283 283 281 279 278 275 274 275 271 276 277 273 274 281 286 288 288 289 289 288 289 290 290 290 290 289 289 289 289 286
292 289 296 292 298 294 292 293 291 289 287 286 284 286 289 286 289 290 290 289 288 289 288 289 289 284 287 288 287 286 286 287 284 281 280 281 282 286 283 284 284 283 284 284 282 282 281 281 281 279 276 275 277 279 283 283 282 278 280 281 281 282 280 278 277 274 273 276 275 278 279 279 282 284 286 287 287 287 288 289 289 290 290 289 287 287 287 286
293 291 291 290 292 293 290 290 292 291 288 291 284 285 284 286 288 290 293 287 289 288 290 289 290 287 286 287 285 285 287 286 287 281 279 278 280 283 283 285 283 284 283 282 283 279 281 278 281 281 280 281 282 282 284 284 280 281 280 280 282 281 277 276 276 275 280 275 273 280 281 279 280 283 285 286 287 288 288 289 289 290 290 289 289 286 288 285
291 289 292 293 292 288 289 287 291 291 292 290 284 289 287 286 286 283 289 288 289 287 288 289 288 288 288 286 285 281 285 285 285 281 279 280 280 282 282 284 283 285 282 283 282 281 279 276 277 275 275 280 282 282 283 282 281 281 281 281 280 282 281 276 278 280 280 276 274 279 281 279 282 284 286 287 288 288 288 289 290 291 290 288 286 285 285 286
291 290 291 293 290 287 290 290 292 293 291 289 287 290 286 287 285 286 285 286 290 287 289 284 287 288 288 288 286 282 285 278 279 281 279 279 279 280 281 282 284 283 281 282 281 281 279 278 279 277 278 280 281 282 282 281 281 281 281 282 282 282 281 281 281 282 281 279 281 281 281 281 284 285 287 288 290 290 290 291 291 289 288 287 286 285 287 287
290 290 288 293 290 286 285 285 292 292 288 291 286 286 288 287 286 288 288 287 285 288 290 287 287 287 288 288 287 283 285 285 283 279 281 280 282 282 280 280 280 282 283 281 281 280 280 278 280 279 277 279 282 282 280 282 281 280 282 282 282 282 282 282 282 282 282 281 282 282 281 281 286 289 289 290 290 291 290 289 289 289 287 286 286 287 287 288
291 293 298 292 288 286 287 289 290 290 287 287 287 288 290 289 287 288 288 289 288 287 287 285 287 287 289 288 288 287 286 285 284 284 284 283 280 283 279 281 282 280 281 281 281 279 276 277 278 278 277 277 281 280 281 282 281 280 280 281 281 280 278 281 280 282 280 280 281 280 279 280 285 288 289 289 289 289 288 288 288 288 287 287 287 288 288 286
292 292 294 294 287 289 288 289 290 290 285 288 289 289 289 289 289 289 286 290 289 289 288 287 286 286 287 288 286 287 285 283 284 284 283 283 283 283 283 283 282 280 280 280 279 278 278 277 276 277 275 276 280 281 280 280 279 276 276 280 282 282 282 282 283 283 282 283 280 278 279 284 285 285 282 283 286 288 288 288 288 288 288 287 287 286 285 283
Wind_Speed
7 8 8 9 9 9 10 10 10 10 10 10 10 11 11 10 11 11 11 11 11 11 10 9 8 8 8 8 12 7 9 5 4 8 9 3 5 12 12 9 10 11 10 7 7 6 8 6 6 0 5 4 2 2 0 1 1 1 1 3 6 6 2 3 4 2 2 5 6 7 7 5 5 6 3 1 4 5 5 4 4 6 7 8 3 6 6 8
7 8 8 9 9 9 10 10 10 10 10 10 11 11 11 11 11 11 11 11 11 11 9 7 7 7 7 7 10 7 6 5 1 10 5 3 8 6 5 7 8 9 9 4 6 8 8 7 6 1 5 4 3 0 1 1 0 2 2 3 5 3 1 3 4 6 1 2 8 5 7 6 4 9 5 4 4 6 6 7 6 8 9 8 7 7 6 8
7 8 8 9 9 9 10 10 10 10 10 11 11 12 11 11 11 11 11 11 10 9 7 6 5 4 5 4 6 4 5 6 4 10 5 2 8 8 7 7 8 6 4 4 6 7 8 8 9 6 5 6 2 1 2 0 1 2 2 4 2 2 2 6 7 3 3 4 7 4 5 6 3 6 6 5 4 6 11 8 8 10 11 11 10 8 9 8
7 7 8 8 9 9 9 9 10 10 11 11 11 11 11 11 10 10 10 10 9 8 7 5 4 4 3 4 2 4 4 6 4 6 9 12 11 8 8 8 7 7 4 6 5 6 4 6 7 6 4 4 1 2 2 2 1 1 2 2 3 3 3 4 5 5 3 5 2 5 4 6 4 3 4 3 4 9 9 10 10 11 13 11 10 10 10 11
6 7 7 8 8 8 9 9 10 10 11 11 11 10 10 10 10 9 9 8 8 7 6 4 3 2 4 5 5 3 1 3 3 6 10 13 9 7 7 7 7 4 5 7 8 8 5 6 6 4 2 3 0 2 2 1 1 2 1 0 3 5 3 4 4 4 5 3 5 4 5 5 3 3 4 5 7 8 5 8 11 10 8 10 11 11 10 12
6 6 7 7 8 8 9 9 10 10 11 10 10 9 9 9 8 8 8 7 7 6 5 4 2 1 1 3 2 3 2 1 3 8 9 9 10 8 6 5 7 5 4 7 6 6 6 6 6 3 3 2 2 3 2 1 0 2 1 1 3 2 4 3 5 3 4 2 2 1 3 1 4 3 5 7 13 7 4 3 1 3 8 9 6 5 7 11
5 6 6 7 8 8 9 10 10 10 10 10 10 9 9 8 7 7 7 5 5 5 4 4 3 1 0 1 1 3 5 5 5 7 11 7 9 5 6 7 6 4 3 6 7 5 5 7 4 4 3 2 1 2 2 4 0 2 2 2 1 4 3 3 4 3 2 4 2 5 4 3 3 8 3 10 11 10 11 10 4 1 3 4 4 5 6 5
5 6 6 7 8 8 9 9 10 10 10 10 9 9 8 7 6 5 4 4 4 4 4 4 4 1 4 2 2 2 5 4 9 7 10 9 8 6 7 5 3 3 6 5 6 6 5 6 6 1 3 2 0 2 2 6 1 2 1 0 1 2 1 1 1 1 1 2 3 4 3 4 5 6 5 16 12 11 12 11 12 10 5 5 6 6 5 6
5 6 7 7 8 8 9 9 9 9 9 9 9 8 7 7 6 5 4 4 4 5 5 6 6 4 2 3 4 2 4 5 7 9 10 8 8 7 5 5 3 5 6 5 3 5 5 1 3 1 2 0 1 0 2 3 1 3 3 1 1 1 2 2 0 0 0 1 1 3 6 6 7 9 16 21 14 12 11 10 10 9 11 10 10 10 8 8
6 6 7 7 8 8 9 9 9 9 9 8 8 7 7 8 5 5 5 5 5 5 7 8 1 4 2 3 3 1 2 6 6 6 7 6 6 8 3 4 5 7 5 5 4 5 4 3 3 2 1 3 1 1 3 1 1 1 0 2 3 2 2 0 4 1 0 3 1 4 7 8 6 4 11 5 12 12 12 12 11 11 12 12 10 9 9 10
6 6 7 7 8 8 9 9 9 9 9 9 8 7 7 9 8 3 3 2 3 4 5 4 4 3 5 6 1 3 2 6 4 5 7 6 4 6 8 7 6 7 6 1 4 7 8 4 5 1 1 1 2 2 2 0 2 1 0 1 1 2 3 1 3 2 0 3 4 4 9 8 9 4 15 19 6 4 9 11 12 12 12 11 12 11 9 10
6 6 7 8 9 9 9 9 9 8 8 8 8 7 7 8 7 4 3 4 4 5 4 2 4 3 5 11 8 4 5 4 4 4 5 6 3 3 4 5 5 7 8 2 4 5 6 5 4 2 0 2 0 1 1 2 3 2 3 3 2 3 4 5 6 5 3 3 3 1 9 12 10 9 22 22 12 6 4 5 6 8 9 8 8 9 8 10
6 7 7 9 10 10 10 9 9 8 8 8 7 6 5 7 7 4 4 4 4 4 6 5 3 5 4 4 4 4 3 4 3 6 6 7 1 3 3 4 6 6 8 6 4 3 3 4 2 3 2 0 2 0 0 3 1 2 3 2 4 3 5 9 5 4 6 2 5 1 8 2 5 17 20 16 7 8 8 7 7 6 7 7 8 8 9 8
7 8 9 10 10 11 10 10 10 9 8 7 6 4 4 5 4 4 3 4 4 6 8 9 4 4 3 3 2 1 2 3 7 4 8 9 9 3 4 4 5 4 3 5 3 1 1 2 7 4 2 2 1 0 1 1 0 2 1 1 3 3 2 6 6 6 3 4 4 2 3 12 10 14 6 11 7 9 10 10 8 9 8 9 8 8 9 9
8 8 9 10 10 10 11 10 9 7 6 4 1 3 2 3 4 4 3 3 5 5 9 7 4 3 2 2 2 3 2 3 4 8 4 9 9 6 7 4 3 3 2 3 1 1 1 0 1 1 2 1 4 1 1 2 3 3 2 2 2 3 1 5 5 6 5 2 4 3 6 12 10 5 2 4 4 4 7 8 9 9 9 10 9 10 10 9
8 8 9 10 10 10 10 9 8 6 1 4 4 3 3 1 2 3 1 2 6 6 5 3 2 1 4 3 3 1 2 7 8 7 3 3 6 7 8 7 4 0 2 1 1 1 1 2 1 2 2 0 2 2 4 2 3 2 2 4 4 1 3 1 5 4 6 2 4 5 7 11 13 5 1 3 6 7 8 10 10 11 11 10 9 8 7 7
8 8 9 9 9 9 9 9 8 4 3 1 0 3 3 4 6 6 5 5 4 3 4 2 5 3 2 2 3 3 7 5 3 5 5 2 3 6 8 8 2 2 1 4 4 3 2 2 1 2 2 3 2 3 3 2 1 0 1 3 4 3 4 4 1 4 1 3 3 7 6 14 17 17 16 12 8 8 11 12 12 11 10 9 9 8 7 6
7 8 8 9 9 9 8 7 6 3 2 1 4 5 5 9 5 1 2 2 2 1 2 2 3 2 4 2 4 8 5 4 5 5 7 1 3 5 5 5 3 5 6 5 4 6 2 2 3 2 3 4 7 5 2 2 0 3 5 4 4 6 6 6 6 0 1 3 5 6 10 17 20 18 16 15 13 15 16 14 12 12 10 10 9 9 8 8
7 8 8 9 9 8 7 6 5 6 6 6 5 5 6 5 5 7 6 5 1 1 1 5 5 3 2 5 3 5 4 3 4 5 6 7 3 6 6 6 7 6 3 3 2 4 1 2 3 3 2 5 5 4 2 1 4 4 5 4 5 5 6 6 6 1 2 2 5 9 11 14 19 19 16 14 11 12 13 12 11 10 11 10 9 8 8 7
8 8 8 9 8 8 7 6 6 6 7 4 1 0 1 1 0 3 7 9 7 4 3 2 2 3 2 5 6 8 9 4 2 5 7 5 6 7 9 4 3 3 3 2 2 0 1 2 3 2 2 3 3 3 3 4 4 5 4 4 6 6 8 7 4 2 1 2 8 12 11 14 18 20 18 15 10 10 12 13 12 11 8 9 8 6 6 6
8 8 8 8 8 7 7 6 6 7 4 3 2 1 2 2 2 3 2 4 2 4 2 1 2 5 4 3 5 7 5 1 1 9 9 8 4 3 2 1 2 3 1 1 2 0 1 0 2 1 3 3 3 3 3 4 3 4 4 4 7 5 7 5 3 2 0 1 5 7 16 19 17 18 20 15 11 14 12 11 12 11 9 6 5 5 6 5
8 8 8 8 7 7 6 6 6 8 6 3 2 1 2 1 0 1 1 2 2 3 3 2 1 4 4 1 1 2 4 3 5 11 9 12 1 2 3 3 3 2 0 2 2 1 2 2 1 3 2 1 2 2 2 3 4 4 4 5 5 8 4 4 2 2 1 0 12 8 13 18 15 20 21 17 13 10 9 8 7 6 6 4 3 5 5 2
8 8 8 8 7 7 7 6 7 6 3 2 3 5 2 3 3 2 2 1 2 2 2 4 6 7 7 3 5 6 4 7 2 9 11 11 5 3 3 4 3 3 3 6 5 5 2 0 2 0 1 2 2 4 3 4 4 4 6 4 5 3 6 6 2 2 1 2 9 11 13 18 17 17 16 17 9 5 1 1 3 4 4 1 1 5 3 2
8 8 8 9 8 7 8 7 7 4 2 4 6 3 3 4 5 3 1 1 2 2 2 2 3 4 3 4 4 6 5 2 2 9 7 7 4 4 2 4 4 2 3 4 5 3 1 1 1 1 0 1 2 5 5 3 5 4 5 6 6 5 4 2 10 11 10 10 8 9 10 12 6 4 6 4 3 3 1 2 2 2 1 2 4 5 4 2
7 7 7 8 7 7 7 7 1 2 2 5 3 2 3 4 3 3 1 1 1 1 3 0 2 2 2 1 2 2 3 2 3 2 4 6 6 2 1 1 1 1 3 4 4 1 1 0 1 2 1 2 3 4 3 3 5 5 1 0 2 4 7 10 9 12 9 5 2 1 7 7 4 10 10 10 1 1 0 0 2 0 0 0 1 1 4 1
6 6 6 6 6 7 7 2 1 2 2 2 2 4 4 4 4 3 1 1 2 2 2 3 3 1 3 2 3 2 0 1 2 4 1 3 3 1 2 0 1 3 3 3 1 0 0 1 1 1 2 3 3 3 0 3 3 5 3 2 2 5 7 8 9 6 6 5 1 1 3 9 8 8 10 6 5 7 1 1 1 1 3 2 3 1 6 8
5 5 4 4 4 5 1 1 1 2 0 0 3 5 4 3 3 3 0 1 2 2 2 2 1 1 1 3 5 2 2 3 3 2 2 3 2 0 2 3 1 1 1 0 1 1 1 0 1 1 3 2 4 2 1 2 2 4 1 3 4 8 10 8 5 3 7 6 13 8 6 3 7 10 4 9 9 5 7 5 3 3 0 4 4 7 6 9
4 4 3 3 2 1 1 1 2 0 1 2 4 4 5 4 2 1 0 1 3 3 2 3 1 3 3 6 6 4 2 6 2 2 2 1 1 1 1 1 1 4 2 1 5 1 1 0 1 1 1 2 2 1 1 1 1 5 3 3 8 11 11 5 4 5 5 5 10 3 3 1 3 5 9 11 8 9 9 8 6 9 4 4 6 6 8 8
4 4 5 3 3 7 3 1 1 1 1 4 3 4 2 3 1 0 1 3 4 2 6 1 2 2 7 6 2 4 0 2 2 3 4 1 0 1 1 2 2 1 1 1 1 1 1 1 1 1 1 3 1 1 1 3 2 2 4 8 10 11 5 3 1 3 4 1 5 6 3 2 8 7 8 6 3 11 9 9 6 5 7 2 5 6 7 5
3 3 2 4 1 1 1 3 5 1 3 2 3 2 3 1 1 1 0 3 2 2 3 3 3 7 6 5 1 7 5 3 1 4 1 2 4 0 2 2 1 3 1 0 1 0 1 2 1 1 1 2 3 6 4 5 5 5 10 7 8 7 2 3 2 2 3 0 1 3 4 3 8 6 8 5 7 5 5 7 8 9 7 9 7 5 4 3
6 5 2 3 2 1 1 1 0 0 2 3 3 3 1 1 1 1 4 0 1 1 2 2 2 2 5 7 4 7 2 3 5 4 4 2 7 8 6 1 2 2 0 1 2 1 1 0 1 1 3 3 1 6 3 1 0 2 3 4 8 3 3 2 1 1 1 2 2 3 1 5 11 7 7 6 7 3 4 5 6 7 8 6 5 4 3 4
12 13 11 7 0 2 1 1 0 1 2 3 3 0 1 1 4 7 1 1 0 4 2 4 2 3 6 1 1 7 5 5 2 4 5 3 5 10 9 7 5 6 4 8 6 7 3 1 1 2 1 4 3 4 1 2 0 3 6 6 6 4 4 5 3 4 4 6 3 1 8 8 4 6 15 10 4 4 3 2 1 2 4 4 4 4 2 1
17 16 16 8 2 5 2 1 1 2 3 3 1 0 1 2 4 3 1 5 0 1 2 4 5 5 6 3 5 5 1 2 5 1 2 1 3 3 5 10 6 3 3 7 6 7 3 0 2 1 3 2 1 6 7 4 2 8 4 4 4 4 5 5 4 2 4 7 6 6 3 5 8 7 4 14 14 2 2 1 1 1 1 3 4 4 3 4
9 10 10 3 8 4 2 1 0 2 2 2 1 1 5 8 1 3 1 3 2 0 4 2 5 5 1 3 2 5 4 1 3 4 2 2 5 4 2 7 9 6 0 6 5 5 5 3 2 3 4 1 2 3 0 4 6 4 1 1 1 2 1 5 3 5 7 9 13 7 5 4 10 6 9 18 13 0 3 2 1 1 1 1 3 3 3 2
14 13 9 4 3 3 4 2 0 1 2 1 1 2 6 3 2 3 2 3 2 3 2 3 4 2 0 1 0 1 2 2 2 4 5 4 4 2 4 5 7 4 3 3 2 1 4 5 3 4 2 0 2 1 1 3 5 2 3 0 1 1 1 3 3 5 4 8 8 4 4 6 4 8 14 9 7 7 9 9 8 7 1 2 3 2 3 4
3 3 3 3 3 3 3 2 1 2 0 1 6 9 5 1 1 2 1 1 2 3 8 7 0 4 4 1 2 5 3 1 4 3 1 3 2 3 1 3 4 7 4 4 4 3 4 2 7 9 6 2 1 1 0 1 1 3 5 2 2 3 4 2 4 6 6 3 7 3 7 10 4 13 5 6 7 5 7 7 6 6 2 1 2 1 4 4
5 1 5 2 3 4 1 1 1 0 1 4 7 5 0 1 1 3 3 2 1 2 3 2 4 3 5 4 4 7 4 0 3 4 3 1 2 4 2 1 3 4 3 2 4 3 1 11 12 3 3 1 1 0 1 1 1 2 2 3 9 1 1 1 3 4 3 4 8 6 10 16 4 10 3 7 8 10 12 11 9 7 6 4 3 3 4 5
1 2 3 5 4 3 1 2 1 1 3 11 10 8 2 1 0 1 1 3 1 2 3 3 0 2 4 3 4 6 9 3 9 5 2 4 1 2 3 2 2 4 1 2 1 2 3 7 1 1 3 2 2 0 1 1 2 2 3 4 3 3 3 2 1 4 5 6 5 7 10 14 9 8 5 6 8 13 15 14 10 7 8 9 1 5 5 4
1 1 3 4 4 3 2 1 1 3 2 11 2 5 2 2 1 0 1 2 2 1 2 1 1 1 0 3 2 1 5 3 6 3 4 4 3 4 3 3 1 1 1 3 1 3 2 2 3 1 5 6 0 1 3 2 1 1 3 3 1 2 5 3 1 3 1 7 4 6 8 11 6 5 5 10 13 14 14 11 10 8 8 6 4 4 5 4
0 2 3 2 5 6 4 1 7 9 9 8 2 3 1 1 0 0 1 1 0 1 2 2 4 3 4 1 1 2 3 4 3 3 3 2 2 2 3 5 0 5 4 1 1 0 2 0 5 3 7 7 4 0 4 1 3 2 1 2 0 2 2 2 1 2 4 3 4 5 9 11 14 5 8 12 12 13 11 13 13 12 5 2 2 4 4 3
0 2 0 2 8 4 2 6 14 8 7 4 5 3 1 1 1 1 2 3 1 1 0 2 2 3 1 3 2 2 3 3 3 3 2 2 4 4 2 1 3 3 5 0 1 3 1 2 4 10 10 7 8 2 2 0 1 3 2 3 4 3 4 4 9 1 0 1 5 4 11 13 21 8 8 8 9 7 9 12 15 16 7 1 1 1 1 2
2 4 3 7 7 6 4 13 4 3 4 3 1 1 1 2 1 1 0 1 0 0 1 0 2 1 3 2 0 3 3 3 3 3 1 3 2 2 0 1 4 2 2 1 1 0 1 2 3 6 5 10 12 2 2 2 1 3 1 4 1 1 0 2 7 6 5 7 4 6 7 16 18 5 7 7 7 8 10 11 14 13 8 4 1 1 1 0
4 4 3 5 4 1 12 8 3 4 4 2 2 1 1 0 1 3 1 1 1 1 1 2 1 2 2 1 2 2 4 1 2 1 3 2 1 2 2 4 2 4 1 2 1 1 2 0 3 7 6 8 1 1 1 0 1 3 3 4 1 2 3 4 6 2 5 11 6 4 6 14 16 7 6 7 7 10 12 9 11 12 10 5 5 3 2 2
3 3 3 7 3 3 6 5 3 3 3 1 1 2 2 1 3 3 2 2 2 3 1 2 1 3 1 1 1 2 3 2 1 1 2 0 2 2 1 4 5 1 1 1 1 3 2 0 2 6 6 9 4 1 1 1 1 2 6 7 2 1 1 1 1 1 1 10 11 4 10 12 15 9 11 13 14 16 15 13 11 13 12 6 5 4 1 1
4 2 5 6 12 10 7 1 6 5 2 3 2 3 1 1 2 0 0 2 1 0 1 1 1 3 1 0 1 1 1 1 2 1 2 1 1 2 2 2 4 0 2 3 1 3 1 4 1 2 5 8 11 11 11 13 11 10 8 12 3 4 6 2 4 1 3 9 6 5 10 16 19 17 17 17 15 16 17 18 15 12 11 6 5 4 1 1
2 4 3 6 8 7 7 4 4 5 5 3 4 1 2 2 0 2 2 0 0 1 0 1 1 1 2 3 2 1 1 1 2 2 3 3 2 1 3 3 2 1 1 2 4 1 1 2 3 4 4 6 10 9 8 5 9 9 17 19 21 11 5 5 3 4 10 10 8 14 16 19 22 20 18 18 17 19 20 19 17 16 13 7 5 4 1 1
1 4 1 2 1 8 5 5 3 3 1 1 3 1 6 2 0 0 4 1 0 1 1 0 2 2 2 3 2 2 2 5 1 1 1 4 1 1 1 1 1 2 3 1 3 0 1 4 6 9 9 13 13 13 13 9 12 15 15 19 18 17 6 5 7 13 12 5 12 13 17 17 21 19 19 20 19 20 20 19 18 16 12 7 5 3 3 3
5 1 1 1 3 1 3 5 5 5 5 4 2 0 2 1 3 2 1 1 0 0 1 1 2 3 1 0 2 2 5 6 2 2 4 0 3 3 2 0 1 4 3 1 3 0 1 3 4 4 8 8 14 15 15 14 12 12 14 17 17 19 13 10 15 19 11 8 17 19 18 21 22 19 20 22 22 22 22 21 17 15 11 6 5 6 6 8
3 3 2 1 4 1 1 0 2 4 6 3 3 2 3 3 3 0 0 3 0 1 2 1 4 5 4 1 1 1 3 5 4 1 2 4 4 5 3 1 1 3 2 1 1 1 0 5 4 4 7 12 17 12 8 13 11 12 14 18 16 16 17 16 17 17 15 16 18 18 20 24 23 20 21 23 22 21 20 16 12 10 10 6 7 7 10 13
2 3 2 3 5 4 0 0 0 2 5 1 3 3 1 2 2 1 0 2 2 2 4 1 5 6 5 1 1 1 0 1 1 4 0 3 7 1 3 1 2 2 2 1 0 1 2 5 5 5 7 15 15 9 5 6 5 13 22 20 15 14 14 16 14 14 14 13 13 14 18 20 15 16 18 19 19 19 17 15 14 11 7 8 9 13 14 17
2 1 3 8 5 3 2 1 2 3 2 5 4 0 0 2 2 1 1 3 1 1 2 2 4 7 3 1 4 1 2 1 3 8 6 2 5 0 1 1 2 5 3 1 1 1 1 4 4 3 8 14 12 7 8 11 13 15 19 14 11 8 8 10 10 8 7 14 15 10 12 13 15 21 25 25 24 22 21 16 10 8 11 14 16 18 17 10
2 0 1 2 7 1 2 1 1 0 4 1 2 2 2 2 1 1 0 2 2 2 0 1 4 2 4 2 3 1 1 2 5 5 3 4 4 6 4 5 3 1 3 2 1 2 2 1 4 3 7 13 17 11 13 16 13 9 5 2 11 16 12 12 13 10 5 9 13 14 17 24 30 31 33 36 38 31 21 18 21 25 24 25 27 23 16 16
Wind_Direction
306 308 310 309 312 313 312 314 315 315 315 314 308 302 299 297 294 291 289 287 288 289 287 287 298 303 313 319 304 349 327 302 335 52 70 108 255 282 287 293 300 309 317 313 287 267 304 296 281 185 272 255 123 249 165 63 302 357 229 226 255 257 246 11 332 57 132 150 137 183 167 180 192 158 198 214 250 243 262 260 252 249 224 225 240 132 142 128
298 301 301 306 306 309 311 311 313 314 311 305 302 295 294 292 289 288 290 289 288 288 294 302 301 302 307 306 304 341 328 299 345 72 72 260 265 289 314 314 325 328 316 287 326 325 303 305 308 305 275 263 103 57 226 120 53 248 283 267 272 21 12 340 22 28 356 80 150 191 170 201 207 156 176 188 208 213 239 242 238 241 241 230 229 154 160 156
288 293 299 303 305 306 309 310 310 308 303 297 293 291 291 290 288 289 288 285 288 297 305 307 299 296 282 295 298 316 311 298 269 33 41 346 4 355 353 342 333 326 322 329 314 319 309 319 311 321 280 285 142 89 238 79 338 202 272 281 35 313 53 19 25 42 40 338 148 178 182 200 196 175 143 210 225 202 224 228 222 234 235 234 222 196 174 177
286 293 298 300 304 305 307 307 304 299 294 291 289 293 292 290 290 290 287 289 299 308 310 307 298 272 268 278 233 280 255 279 55 349 15 3 354 352 345 338 328 318 284 262 282 307 306 284 281 288 312 283 163 204 257 100 274 58 223 270 341 357 297 33 30 20 356 356 164 166 167 209 220 207 158 207 241 243 235 216 218 219 228 231 230 219 194 189
290 297 298 298 301 304 300 299 295 291 288 287 288 286 287 287 289 288 290 301 304 304 304 312 307 273 254 226 270 271 260 266 33 345 358 1 350 331 344 330 312 319 307 294 296 265 265 283 281 279 278 290 114 295 57 356 102 304 287 310 330 357 332 36 58 21 343 329 319 153 175 216 214 232 236 216 225 234 219 226 214 229 230 222 221 222 213 205
294 294 298 301 300 298 296 292 289 287 287 287 288 288 288 290 295 296 296 299 300 299 294 307 305 322 263 1 279 234 252 39 333 5 344 344 343 330 323 315 304 297 297 296 286 306 284 260 242 240 238 250 10 308 54 298 157 286 136 323 20 7 325 10 29 354 299 280 299 165 215 216 228 241 218 242 237 240 255 85 334 231 221 236 254 238 224 214
294 296 299 299 297 293 292 288 287 287 288 296 300 303 298 296 294 288 287 294 298 298 298 296 339 80 127 161 231 250 53 101 3 339 346 339 327 343 295 286 281 292 277 287 287 277 269 282 273 282 315 262 239 328 30 317 27 213 320 358 87 334 17 8 27 0 336 336 310 2 358 261 234 254 240 244 241 249 257 273 281 272 317 327 284 263 260 271
297 298 297 297 294 291 288 288 289 294 301 302 299 294 289 286 284 279 284 293 292 277 277 270 257 271 107 217 251 121 48 16 334 334 332 351 332 328 305 268 266 278 282 288 324 315 342 282 286 70 235 303 65 313 2 305 58 301 265 22 36 277 62 55 2 8 25 293 339 336 297 259 272 268 285 254 249 241 241 239 252 261 248 235 256 255 254 256
298 298 298 295 292 289 289 290 292 295 294 291 289 292 294 295 293 311 310 290 276 275 265 261 230 205 209 330 267 301 38 346 323 327 344 345 333 308 286 323 166 269 284 268 268 292 289 279 256 226 358 204 28 171 5 14 145 9 18 304 271 326 338 4 250 201 203 274 272 307 269 269 268 287 266 260 253 252 247 240 237 236 240 231 228 234 236 238
300 299 299 295 289 289 290 291 292 292 294 299 306 310 305 301 318 321 312 306 297 280 259 244 33 110 238 226 261 179 75 300 335 337 343 338 335 327 328 331 314 304 313 1 302 290 288 348 355 45 87 89 322 61 273 285 337 301 300 342 330 9 333 183 288 153 197 287 316 264 279 273 266 240 276 237 238 238 240 237 238 236 236 235 229 224 229 233
301 300 301 297 294 295 297 297 302 307 311 313 310 315 316 313 319 283 250 299 329 303 285 298 106 148 260 222 252 98 12 313 5 336 330 334 2 1 350 337 330 326 318 98 13 357 351 18 351 57 351 57 137 58 27 147 246 274 142 220 254 250 258 209 247 249 4 258 220 249 272 272 265 259 245 264 229 236 219 224 229 227 233 232 233 228 219 225
306 309 308 307 308 308 310 313 312 305 301 316 321 322 314 300 291 329 350 325 309 317 353 283 161 257 314 54 52 44 326 349 318 332 341 311 42 356 340 358 354 353 340 7 50 10 357 341 314 36 338 321 6 116 129 259 255 191 251 294 215 236 249 215 225 219 185 253 118 282 277 259 234 218 240 246 250 239 236 245 233 228 229 234 234 234 227 227
320 323 322 320 320 319 317 317 315 315 322 317 306 290 289 281 288 334 356 328 22 328 330 323 262 242 270 47 36 356 334 315 327 300 3 332 323 71 61 24 37 29 21 36 33 12 325 313 320 82 344 334 46 73 146 267 185 292 257 256 307 238 254 226 200 223 165 239 133 224 318 256 221 219 242 247 223 218 226 224 234 235 226 225 225 227 234 233
331 333 331 328 327 327 326 325 321 316 306 295 295 290 290 290 310 341 323 331 316 326 325 336 349 301 58 70 64 34 267 307 305 346 1 346 344 45 48 45 28 46 41 57 42 352 95 87 82 99 31 21 176 138 161 208 87 265 192 216 250 326 292 157 181 175 211 132 161 114 236 288 289 292 253 227 223 194 213 221 225 230 233 231 226 222 225 229
337 337 334 332 333 331 327 318 311 297 298 294 312 53 22 326 360 343 338 321 313 316 311 314 241 264 41 100 141 205 1 284 328 11 17 344 348 329 16 347 17 38 21 38 78 352 6 343 226 106 73 120 98 149 222 214 198 252 352 277 208 186 277 185 172 172 198 152 199 129 265 258 276 280 61 143 194 203 222 221 225 226 225 224 220 218 215 222
339 339 333 335 335 329 320 314 312 309 264 63 68 58 24 60 184 224 218 313 295 298 292 276 284 314 127 73 48 122 261 14 4 330 2 313 339 338 326 296 263 300 269 105 290 295 348 359 42 113 116 237 232 238 257 222 229 220 165 296 300 320 304 340 190 205 230 19 182 178 252 307 290 267 259 182 202 214 221 226 229 234 237 236 231 223 215 215
337 336 334 336 334 327 321 320 330 348 83 73 83 272 248 189 191 207 205 226 243 226 269 7 320 347 36 195 231 348 8 7 355 328 335 296 308 315 313 324 282 264 142 211 222 264 209 260 34 292 232 245 3 274 320 273 312 142 199 285 307 341 343 326 140 293 189 152 241 217 242 253 267 280 277 266 246 230 235 239 239 239 240 235 239 231 222 219
331 335 337 338 332 329 321 323 332 58 76 203 241 204 207 223 180 250 299 249 187 62 330 354 62 35 105 34 6 359 340 346 316 315 281 336 195 282 315 313 320 313 288 273 212 241 169 247 155 259 160 37 23 351 22 330 251 305 340 339 327 342 294 268 298 276 181 195 236 258 254 271 272 273 271 261 246 244 248 244 240 238 235 237 227 233 232 229
334 338 342 337 332 327 327 330 347 347 345 308 281 279 275 246 156 68 36 5 359 59 62 353 359 42 26 354 342 324 329 289 295 266 350 8 329 290 275 253 260 282 278 268 106 251 125 254 187 296 14 6 12 30 45 311 331 306 322 285 293 301 304 311 297 128 308 265 260 252 257 271 277 278 273 266 260 257 256 253 252 238 228 234 232 226 227 230
340 341 342 335 331 325 334 339 331 335 334 330 287 16 133 199 112 22 16 41 55 73 109 327 38 134 108 16 354 319 273 268 307 55 9 355 323 336 312 279 264 243 268 297 314 55 353 37 31 25 338 344 1 12 332 338 325 316 300 284 271 273 283 283 289 86 167 294 244 264 267 267 276 279 279 278 278 261 258 262 261 259 245 223 230 237 233 231
337 341 336 332 327 333 329 331 310 305 324 296 347 283 291 35 352 80 68 76 60 0 44 59 60 65 54 301 354 352 356 227 214 35 17 314 287 330 289 243 216 249 92 267 259 308 86 284 34 33 14 355 347 344 339 302 285 282 295 295 290 281 284 288 306 175 155 140 272 276 285 276 273 283 281 286 283 271 263 258 258 260 253 234 209 231 237 238
334 332 329 318 324 319 322 289 306 298 302 292 269 283 57 68 278 55 283 94 7 358 332 52 299 103 190 1 51 355 238 289 45 19 2 352 222 285 343 279 350 22 260 294 225 279 52 53 45 41 27 334 285 298 258 276 297 288 259 281 305 283 280 297 111 208 137 87 274 287 287 287 288 279 284 283 271 262 256 250 259 262 262 238 206 231 225 190
328 324 319 315 308 306 288 306 294 297 282 204 128 90 68 358 325 238 248 153 76 277 21 13 35 21 22 37 26 322 5 45 322 10 357 338 324 69 301 351 353 350 33 8 15 328 55 125 66 77 61 314 268 211 256 280 247 254 285 259 248 309 19 302 253 108 240 171 287 295 297 289 285 279 272 266 261 259 278 3 11 13 350 354 26 12 30 45
323 323 321 312 313 309 307 304 293 287 14 46 63 48 351 354 325 317 236 17 112 352 31 16 14 26 32 358 8 348 27 8 328 336 354 346 359 287 304 46 320 16 357 17 348 9 167 89 82 94 256 334 333 322 294 313 314 285 242 244 281 336 306 250 305 313 295 265 258 291 291 284 254 293 325 354 9 2 332 345 318 324 7 30 6 3 13 10
318 319 314 309 311 308 292 304 310 53 247 75 77 57 13 335 338 358 21 345 154 105 338 350 282 83 339 238 248 283 37 204 27 339 335 2 337 317 71 256 290 35 347 357 321 280 142 135 340 243 225 238 322 321 347 28 314 308 302 68 355 320 306 296 303 325 327 320 86 335 343 300 23 360 325 298 340 296 339 106 291 301 51 25 12 232 247 64
305 301 303 313 312 310 302 338 76 287 358 56 37 3 355 341 349 335 19 224 91 340 179 38 198 3 192 0 345 108 281 313 261 343 338 2 242 10 271 20 72 310 351 1 20 189 332 65 286 316 340 321 290 272 32 99 316 339 298 7 335 287 279 292 307 360 311 319 329 83 292 287 326 339 315 341 342 329 88 336 303 159 161 142 189 81 59 44
287 290 302 297 317 332 327 136 315 18 108 67 40 336 341 325 335 340 350 219 65 341 22 349 271 68 193 351 319 174 20 332 322 332 344 24 33 112 13 358 325 107 125 312 19 320 159 156 302 254 297 289 295 287 62 34 17 284 235 289 306 291 287 292 316 270 262 295 288 255 207 260 313 306 305 340 323 328 28 37 13 35 171 136 94 79 62 62
274 259 260 249 259 14 8 108 91 67 34 5 331 344 313 320 296 276 99 80 21 308 3 338 80 303 333 308 337 52 168 266 349 34 121 319 202 268 260 348 2 289 339 20 1 294 27 242 211 296 282 277 305 54 42 27 157 271 315 301 290 275 280 311 308 287 276 326 307 359 146 260 256 268 347 329 345 9 357 354 348 351 355 80 94 89 82 78
227 212 211 209 222 222 287 4 331 116 13 326 310 302 318 284 303 315 241 85 264 26 197 25 208 0 347 316 51 31 341 6 19 291 320 121 51 59 326 59 301 323 354 221 268 305 324 88 41 3 77 317 21 304 150 165 302 260 277 285 269 272 265 235 235 272 284 307 313 345 102 276 280 300 323 336 10 343 328 323 333 338 331 8 75 70 72 75
184 194 108 36 4 341 91 81 58 215 289 302 289 286 267 285 239 37 334 60 325 320 34 294 18 305 316 337 138 19 4 2 140 304 285 19 17 350 110 32 283 341 338 41 304 10 170 39 108 77 334 5 298 286 236 223 238 318 313 286 293 280 183 143 205 208 318 12 277 344 335 0 302 320 325 337 340 308 327 341 341 341 343 29 40 58 64 55
95 81 103 294 37 75 322 105 112 83 278 273 282 278 251 256 44 58 62 258 329 322 306 32 336 317 6 36 350 346 348 357 346 8 0 16 4 32 2 31 334 307 160 303 306 269 66 341 46 8 352 293 216 316 51 3 123 2 315 313 316 329 96 135 243 172 47 298 207 299 283 333 305 311 306 323 324 22 22 326 340 342 349 31 8 26 39 30
89 75 65 67 194 286 24 116 33 245 269 290 290 229 344 46 25 61 111 281 44 338 38 308 300 354 339 285 23 343 335 318 15 28 20 9 35 28 16 44 345 3 354 4 327 332 338 61 86 84 241 63 320 313 352 15 287 309 307 328 2 323 346 345 5 348 350 317 266 247 11 335 234 275 293 298 328 13 354 282 290 5 339 352 338 345 10 305
102 98 73 54 147 58 80 18 320 280 274 277 289 265 21 73 60 346 345 343 135 296 311 146 273 333 302 312 12 330 173 25 315 336 140 275 106 51 35 56 348 55 323 332 311 2 302 303 5 255 9 27 323 5 337 356 331 345 8 335 15 354 14 330 315 283 270 298 274 325 332 266 264 276 312 328 311 178 247 223 162 65 38 312 293 298 305 300
129 95 78 82 81 97 140 188 296 313 287 223 350 354 52 65 64 164 217 13 296 306 269 306 319 296 335 47 293 354 352 239 17 326 357 16 48 40 27 48 33 350 310 306 24 345 351 1 9 13 344 304 27 87 174 232 302 292 313 16 261 346 24 318 330 341 310 296 311 324 327 254 326 275 331 317 314 110 188 125 153 213 219 224 248 249 265 292
103 90 118 148 113 105 109 128 123 274 287 284 340 44 73 72 85 352 14 331 355 329 311 357 309 313 27 78 33 48 100 314 43 347 28 35 3 42 6 3 6 21 295 343 47 251 35 257 260 131 228 278 31 213 214 314 298 223 265 107 14 101 165 207 262 296 293 299 307 317 243 264 249 303 313 296 352 329 335 348 11 335 240 12 354 324 12 23
65 123 115 53 30 23 81 91 135 215 294 330 74 54 59 336 38 13 355 255 287 350 315 314 6 0 4 347 215 17 266 84 305 22 62 55 28 54 63 22 17 9 24 28 306 346 343 245 332 337 60 39 158 202 263 78 48 308 5 15 316 181 130 243 299 259 267 282 257 243 299 292 327 301 263 323 321 314 316 331 346 320 296 334 297 355 48 23
100 147 43 335 26 356 73 112 224 253 305 65 82 71 51 75 9 292 9 351 342 334 278 23 350 30 351 328 360 348 312 57 314 8 14 159 60 18 45 69 308 22 23 96 332 127 27 286 295 299 329 269 259 332 296 303 108 338 348 306 297 127 110 112 274 307 287 295 290 320 295 295 23 299 348 318 315 317 330 330 318 296 307 306 266 96 41 17
73 84 132 51 337 327 276 194 285 257 56 77 58 93 333 68 51 318 22 315 299 202 332 34 230 112 345 350 336 344 326 56 329 355 13 16 67 272 36 47 24 67 297 354 137 316 33 312 278 172 234 251 350 4 337 238 179 165 217 289 32 336 347 282 274 316 331 295 289 290 294 290 273 254 317 311 314 320 321 319 309 314 327 315 356 41 19 359
121 162 33 342 351 339 257 174 242 13 70 67 78 92 17 106 337 23 325 298 223 242 20 4 9 5 126 14 285 295 18 23 326 16 359 358 35 11 103 270 329 168 334 360 344 318 320 225 299 281 13 316 148 110 337 314 179 338 0 302 258 127 211 293 323 259 240 270 296 284 313 279 279 257 287 306 317 314 311 307 308 313 328 358 41 3 5 352
75 69 19 342 346 348 323 273 58 48 56 67 63 67 345 87 135 242 115 304 352 349 54 341 359 349 358 59 82 349 333 320 353 308 43 339 21 31 54 11 25 311 325 322 256 320 291 24 275 298 339 328 341 56 304 75 345 317 337 240 310 205 209 220 278 181 230 261 258 290 299 277 279 294 321 302 301 298 302 315 317 316 320 20 19 8 352 348
238 92 239 336 350 329 334 38 45 27 69 82 56 102 25 85 300 147 162 138 263 162 115 63 344 31 318 334 357 17 335 319 325 353 34 356 46 334 104 53 332 315 316 178 117 3 307 307 273 308 331 340 276 183 193 229 190 209 196 247 254 296 339 340 288 259 20 296 283 291 265 282 275 313 283 279 287 300 316 318 315 310 302 302 352 354 328 317
62 68 316 320 336 348 84 54 8 19 62 43 63 329 88 216 285 81 234 156 243 293 116 91 48 16 4 359 165 323 2 321 336 358 44 40 341 61 276 279 297 286 356 353 320 23 114 263 265 294 256 276 291 214 284 249 225 247 184 263 35 344 103 245 280 290 318 264 277 259 284 270 271 305 288 289 295 299 304 305 299 300 304 307 281 267 253 233
32 101 234 284 318 351 62 78 35 40 62 114 193 80 221 212 355 227 43 341 348 248 259 56 316 356 83 64 325 317 28 296 27 337 318 359 226 175 326 302 306 260 209 333 55 211 101 284 286 282 270 259 323 338 276 277 276 312 261 202 16 245 194 210 238 247 270 287 291 259 229 266 282 291 282 287 294 301 302 300 302 305 299 294 303 308 292 323
92 55 4 0 32 153 81 96 90 83 110 224 139 112 342 62 26 14 18 35 40 360 17 357 220 67 266 67 262 293 326 12 179 54 333 340 295 158 340 306 359 1 12 177 129 323 27 283 53 299 324 325 323 10 295 265 94 261 296 282 230 172 87 232 317 59 270 254 243 244 264 275 282 297 302 304 305 300 299 301 301 299 293 279 287 277 272 311
121 72 52 10 20 39 79 41 124 124 137 127 131 57 99 61 36 40 306 6 322 13 334 34 198 300 298 102 267 264 300 149 282 159 190 263 261 95 166 282 293 243 55 348 298 326 171 261 5 345 333 330 326 330 334 329 329 317 300 301 284 180 235 29 288 213 227 263 250 233 255 261 279 295 299 298 300 299 300 302 302 297 293 280 286 269 240 271
357 84 319 24 16 28 54 41 81 111 120 144 63 344 23 64 269 216 251 50 68 261 211 260 183 136 292 321 331 312 250 155 160 300 11 315 352 166 184 197 2 53 94 265 280 299 273 291 216 204 199 240 258 267 282 314 305 300 292 295 291 292 217 211 238 252 245 255 271 259 261 277 284 293 298 301 304 301 300 300 299 302 294 284 283 266 230 255
77 82 340 91 68 49 82 28 31 11 80 279 87 1 32 46 164 63 214 13 43 49 279 67 341 12 331 5 4 294 352 328 150 32 242 285 297 330 154 88 138 239 234 306 201 178 268 286 226 216 225 241 259 269 282 297 281 280 284 280 285 288 235 193 201 244 247 336 272 266 272 278 283 294 300 301 300 299 297 297 296 293 291 283 286 305 318 312
71 253 70 245 110 300 13 10 8 61 45 64 112 143 29 37 27 34 307 150 160 122 67 243 51 73 353 23 290 298 343 314 270 261 331 247 324 306 313 255 278 166 166 208 174 123 325 270 286 114 246 256 265 265 271 273 266 260 261 268 277 279 281 224 245 248 254 234 258 267 274 279 283 292 298 297 297 296 296 292 287 286 289 301 326 341 332 327
88 121 97 290 83 313 58 247 321 73 65 56 94 63 47 52 66 49 132 315 175 5 41 21 349 4 333 321 348 305 345 1 342 359 58 316 2 326 335 325 208 142 218 210 189 205 278 237 274 204 277 277 278 278 258 249 262 272 265 263 264 271 272 266 260 263 249 245 250 264 270 270 279 290 291 291 291 292 290 287 288 294 303 327 348 340 331 322
165 138 86 18 84 113 175 309 255 51 59 6 94 337 48 27 69 47 128 36 24 12 353 31 319 330 314 293 288 275 307 164 246 286 292 34 316 209 250 200 315 224 238 263 28 240 127 274 32 320 306 291 284 286 248 238 267 288 284 283 280 272 276 276 275 273 275 269 264 263 270 276 282 284 289 296 299 298 295 296 305 312 335 354 340 328 319 309
105 68 138 125 88 343 313 345 30 42 65 3 69 277 132 30 82 1 59 8 68 326 20 316 313 312 283 230 238 237 136 205 248 241 279 269 233 110 107 285 88 300 317 268 167 300 108 267 358 327 320 297 299 314 321 322 305 286 280 282 281 294 296 298 297 290 301 289 297 300 296 303 310 316 315 311 309 308 306 311 327 356 357 340 327 318 319 333
88 133 136 120 87 311 41 301 296 2 37 3 43 36 37 57 59 357 54 55 51 47 33 281 291 274 276 233 275 271 298 255 260 265 289 276 299 302 288 279 340 346 327 285 144 212 203 328 341 345 314 284 293 326 332 320 306 296 287 273 331 317 302 293 293 303 286 305 318 332 335 348 354 2 360 355 347 339 341 360 8 3 359 2 357 353 355 352